Location: Fort Collins
(40.5850°N, 105.0840°W)
Time: 02:19:22
(UTC-06:00)

Cosmos 2297 Rocket - Visible Passes

Search period start: 25 July 2014 00:00
Search period end: 04 August 2014 00:00
Orbit: 841 x 843 km, 71.0° (Epoch: 22 July)

Date Brightness Start Highest point End Pass type
(mag) Time Alt. Az. Time Alt. Az. Time Alt. Az.
25 Jul 2.3 00:51:17 67° NW 00:51:17 67° NW 00:56:44 10° NNE visible
25 Jul 4.6 02:34:26 10° WNW 02:36:15 11° NW 02:38:05 10° NNW visible
25 Jul 4.2 22:54:30 13° ENE 22:54:30 13° ENE 22:55:49 10° ENE visible
26 Jul 2.3 00:36:17 71° NW 00:36:17 71° NW 00:41:44 10° NNE visible
26 Jul 4.6 02:19:04 10° WNW 02:21:12 12° NW 02:23:20 10° NNW visible
26 Jul 4.2 22:39:28 13° ENE 22:39:28 13° ENE 22:40:36 10° ENE visible
27 Jul 2.2 00:21:15 74° NW 00:21:15 74° NW 00:26:45 10° NNE visible
27 Jul 4.6 02:03:45 10° WNW 02:06:08 13° NW 02:08:32 10° NNW visible
27 Jul 4.2 22:24:23 12° E 22:24:23 12° E 22:25:22 10° ENE visible
28 Jul 2.2 00:06:09 79° NW 00:06:09 79° NW 00:11:45 10° NNE visible
28 Jul 4.6 01:48:28 10° WNW 01:51:05 13° NW 01:53:43 10° NNW visible
28 Jul 4.2 22:09:13 12° E 22:09:13 12° E 22:10:06 10° ENE visible
28 Jul 2.1 23:50:59 83° W 23:51:05 83° WNW 23:56:45 10° NNE visible
29 Jul 4.6 01:33:12 10° WNW 01:36:02 14° NW 01:38:52 10° NNW visible
29 Jul 4.2 21:53:59 11° E 21:53:59 11° E 21:54:45 10° ENE visible
29 Jul 2.0 23:35:45 80° SW 23:36:05 87° WNW 23:41:45 10° NNE visible
30 Jul 4.7 01:17:58 10° W 01:20:59 15° NW 01:24:01 10° NNW visible
30 Jul 4.1 21:38:38 11° E 21:38:38 11° E 21:39:18 10° E visible
30 Jul 2.1 23:20:24 70° SSW 23:21:05 89° ESE 23:26:45 10° NNE visible
31 Jul 4.7 01:02:44 10° W 01:05:56 15° NW 01:09:09 10° NNW visible
31 Jul 4.1 21:23:10 10° E 21:23:10 10° E 21:23:22 10° E visible
31 Jul 2.0 23:04:55 58° SSW 23:06:05 85° ESE 23:11:45 10° NNE visible
01 Aug 4.7 00:47:31 10° W 00:50:53 16° NW 00:54:16 10° NNW visible
01 Aug 2.0 22:49:14 44° SSW 22:51:05 81° ESE 22:56:45 10° NNE visible
02 Aug 4.6 00:32:20 10° W 00:35:50 17° NW 00:39:22 10° N visible
02 Aug 2.0 22:33:18 31° SSW 22:36:06 77° ESE 22:41:45 10° NNE visible
03 Aug 4.6 00:17:08 10° W 00:20:48 17° NW 00:24:28 10° N visible
03 Aug 2.1 22:16:55 18° SSW 22:21:06 73° ESE 22:26:44 10° NNE visible
